{"data":{"norad_id":58161,"epoch":"2026-09-20T23:05:44.106720Z","epoch_age_seconds":100423,"freshness":"FRESH","line1":"1 58161U 23166M   26263.96231605 -.00000627  00000+0 -74354-5 0  9994","line2":"2 58161  53.1597  31.3559 0001206 103.4471 256.6666 15.34381591163094","mean_motion":15.34381591,"eccentricity":0.0001206,"inclination_deg":53.1597,"raan_deg":31.3559,"arg_perigee_deg":103.4471,"mean_anomaly_deg":256.6666,"bstar":-7.4354e-6,"rev_number":16309,"period_min":93.848884035523,"perigee_km":461.93294424996,"apogee_km":463.58296811339,"semimajor_km":6840.8949561817,"source":"CELESTRAK","updated_at":"2026-09-21T09:00:33.797849Z"}}